Regional Weather Roundup
Issued by NWS

Home | Current Version | Previous Version | Text Only | Print | Product List | Glossary On
Versions: 1 2 3 4 5 6 7 8 9 10 11 12 13 14 15 16 17 18 19 20 21 22 23 24 25 26 27 28 29 30 31 32 33 34 35 36 37 38 39 40 41 42 43 44 45 46 47 48 49 50
000
ASUS43 KMKX 181921
RWRWI

WISCONSIN REGIONAL WEATHER ROUNDUP
NATIONAL WEATHER SERVICE MILWAUKEE/SULLIVAN WI
200 PM CDT FRI AUG 18 2017

NOTE: "FAIR" INDICATES FEW OR NO CLOUDS BELOW 12,000 FEET WITH NO
SIGNIFICANT WEATHER AND/OR OBSTRUCTIONS TO VISIBILITY.

WIZ001-002-006>008-014>016-023>028-182000-
NORTHWEST WISCONSIN

CITY           SKY/WX    TMP DP  RH WIND       PRES   REMARKS
SUPERIOR ARPT    N/A     71  63  74 W5        29.84S
ASHLAND        CLOUDY    73  60  63 MISG      29.85S
HAYWARD        PTSUNNY   71  56  58 VRB6      29.88R
SIREN          CLOUDY    67  62  83 SW3       29.89S
CUMBERLAND     CLOUDY    68  57  68 NW5       29.89S
RICE LAKE      CLOUDY    70  61  74 W6        29.90S
CHETEK         CLOUDY    71  62  73 W6        29.88F
LADYSMITH      CLOUDY    69  57  65 W10       29.89S
EAU CLAIRE     CLOUDY    70  63  78 W9        29.88R
MENOMONIE      CLOUDY    70  64  80 SW9       29.89S
NEW RICHMOND   CLOUDY    73  62  69 SW12      29.90S
OSCEOLA        CLOUDY    71  63  76 W8        29.92S
$$

WIZ003>005-009-010-017-018-182000-
NORTH CENTRAL WISCONSIN

CITY           SKY/WX    TMP DP  RH WIND       PRES   REMARKS
MANITOWISH WTR PTSUNNY   66  57  72 NW10      29.85S
ARBOR VITAE    CLOUDY    69  57  64 NW10      29.85R
WOODRUFF       CLOUDY    69  57  64 NW10      29.85R
RHINELANDER    PTSUNNY   69  57  65 NW8       29.85R
EAGLE RIVER    MOSUNNY   68  53  59 NW12G20   29.83S
LAND O LAKES   PTSUNNY   66  55  67 NW12G17   29.85R
PHILLIPS       CLOUDY    68  58  70 NW5       29.86S
TOMAHAWK         N/A     69  57  65 W10G17    29.86R
MEDFORD        CLOUDY    66  57  72 NW8       29.87S
MERRILL        CLOUDY    68  59  73 W7        29.86S
$$

WIZ029-030-035-036-043>047-182000-
CENTRAL WISCONSIN

CITY           SKY/WX    TMP DP  RH WIND       PRES   REMARKS
WAUSAU         CLOUDY    69  57  65 NW12      29.84S
MOSINEE        CLOUDY    68  61  77 NW8       29.87R
MARSHFIELD     CLOUDY    69  58  67 W12       29.86S
STEVENS POINT  CLOUDY    68  58  71 W8        29.86S
WAUPACA        CLOUDY    73  58  59 W10       29.85S
WAUTOMA        PTSUNNY   74  60  61 NW13      29.85F
WISC RAPIDS    CLOUDY    73  60  63 W12       29.87S
CAMP DOUGLAS   CLOUDY    70  61  73 W8        29.87F
$$

WIZ011>013-019>022-031-037>040-048>050-182000-
NORTHEAST WISCONSIN

CITY           SKY/WX    TMP DP  RH WIND       PRES   REMARKS
ANTIGO         CLOUDY    66  58  75 W13       29.85R
SHAWANO        CLOUDY    71  59  66 W7        29.82R
OCONTO         CLOUDY    71  58  62 W9        29.79R
STURGEON BAY   CLOUDY    69  59  70 NW12      29.79R
GREEN BAY      CLOUDY    70  61  73 W13       29.81R
MANITOWOC      CLOUDY    71  59  65 NW15      29.81S
APPLETON       CLOUDY    70  55  60 W17       29.83R
CLINTONVILLE   CLOUDY    70  57  64 W10       29.83R
OSHKOSH        CLOUDY    71  59  65 W13       29.84R
$$

WIZ032>034-041-042-053>061-182000-
SOUTHWEST WISCONSIN

CITY           SKY/WX    TMP DP  RH WIND       PRES   REMARKS
LA CROSSE      CLOUDY    73  62  68 W7        29.88S
SPARTA         CLOUDY    70  60  72 NW6       29.88F
VIROQUA        CLOUDY    68  60  75 NW6       29.90S
BOSCOBEL       CLOUDY    75  60  59 W7        29.89R
PRAIRIE DU CHI PTSUNNY   74  57  56 W6        29.89F
PLATTEVILLE    SUNNY     74  64  69 W10       29.91R
$$

WIZ056-057-062-063-064-067-068-182000-
SOUTH CENTRAL WISCONSIN

CITY           SKY/WX    TMP DP  RH WIND       PRES   REMARKS
REEDSBURG      CLOUDY    73  59  61 NW12G18   29.87S
BARABOO/DELLS  CLOUDY    74  55  52 NW13      29.87S
LONE ROCK      CLOUDY    74  61  63 NW8       29.87S
MINERAL POINT  SUNNY     77  63  61 W9        29.90R
MADISON        PTSUNNY   76  61  59 W7G17     29.85F
MIDDLETON      PTSUNNY   77  60  55 NW12G17   29.87S
WATERTOWN      PTSUNNY   76  62  62 W12       29.85F
MONROE         MOSUNNY   75  59  57 W8        29.88F
JANESVILLE     MOSUNNY   79  61  53 W12       29.86F HX  80
$$

WIZ051-052-058>065-066-070>072-182000-
SOUTHEAST WISCONSIN

CITY           SKY/WX    TMP DP  RH WIND       PRES   REMARKS
MILWAUKEE      CLOUDY    76  60  57 W13       29.84S
WAUKESHA       PTSUNNY   73  61  64 W13       29.86S
MILWAUKEE/TIMM CLOUDY    73  55  53 W10G16    29.85S
RACINE         PTSUNNY   74  61  63 W9        29.86S
KENOSHA        MOSUNNY   75  60  59 W12       29.86S
FOND DU LAC    CLOUDY    72  58  61 NW9       29.84S
SHEBOYGAN      CLOUDY    70  62  76 W6        29.83R
WEST BEND      CLOUDY    70  59  68 W10G18    29.85S
JUNEAU         PTSUNNY   73  61  66 W12       29.86F
$$

LSZ147-162-182000-
LAKE SUPERIOR

STATION/POSITION TIME  TEMP    WIND        PRES    WAVE
                       AIR SEA DIR/SP/G            HT/PER
                 (UTC) (F)     (DEG/KT/KT) (MB)    (FT/S)
W MID LAKE BUOY  1850   62 61  270/ 14/ 16 1009.1R   2/ 5
DEVILS ISLAND    1900   62     240/ 10/ 13 1010.1F
PORT WING        1740   71     290/  4/  4 1010.8
SAXON HARBOR     1840   67     330/  5/  6 1010.5R
$$

LMZ867-665-643>646-182000-
LAKE MICHIGAN

STATION/POSITION TIME  TEMP    WIND        PRES    WAVE
                       AIR SEA DIR/SP/G            HT/PER
                 (UTC) (F)     (DEG/KT/KT) (MB)    (FT/S)
S GREEN BAY BUOY 1900   69 71  330/  8/ 10 1008.8
N MID LAKE BUOY  1850   65 67  290/ 17/ 21 1007.3F   4/ 4
NORTHPORT PIER   1840   68     320/ 16/ 20 1007.5S
KEWAUNEE LAKESHO 1900   71     300/  6/ 10 1008.3
SHEBOYGAN LAKESH 1900   69     270/ 13/ 17 1009.5R
PORT WASHINGTON  1830   73     300/  7/ 15 1010.8S
ATWATER BUOY     1839   72 71  270/ 10/ 14 1010.7R
MILWAUKEE LAKESH 1900   73     270/ 11/ 13   N/A
S MID LAKE BUOY  1850   69 71  290/ 12/ 14 1010.8R   3/ 5
KENOSHA   LAKESH 1900   74     260/ 15/ 19 1010.5
$$

TC  - TEMPERATURE IN CELSIUS
VSB - VISIBILITY IN STATUTE MILES
WCI - WIND CHILL INDEX
HX  - HEAT INDEX




USA.gov is the U.S. government's official web portal to all federal, state and local government web resources and services.